Weather History for Melbourne, FL

Change the Weather History Date:

Wednesday, July 24, 2013

  Actual Average Record
Temperature  
Mean Temperature 82 °F 82 °F  
Max Temperature 90 °F 91 °F 98 °F (1983)
Min Temperature 73 °F 73 °F 68 °F (1944)
Degree Days  
Heating Degree Days 0 0  
Month to date heating degree days 0 0  
Since 1 June heating degree days 0 0  
Since 1 July heating degree days 0 0  
Cooling Degree Days 17 17  
Month to date cooling degree days 415 397  
Year to date cooling degree days 1774 1585  
Since 1 June cooling degree days 913 859  
Growing Degree Days 31 (Base 50)    
Moisture  
Dew Point 73 °F    
Average Humidity 77    
Maximum Humidity 94    
Minimum Humidity 59    
Precipitation  
Precipitation 0.78 in 0.20 in 2.27 in (1944)
Month to date precipitation 5.89 4.51  
Year to date precipitation 27.96 24.72  
Sea Level Pressure  
Sea Level Pressure 29.95 in    
Wind  
Wind Speed 8 mph (WSW)    
Max Wind Speed 30 mph    
Max Gust Speed 38 mph    
Visibility 8 miles    
Events Rain , Thunderstorm    
T = Trace of Precipitation, MM = Missing Value Source: NWS Daily Summary

Daily Weather History Graph

Daily Weather History Graph

Search for Another Location

Airport:

Trip Planner

Search our weather history database for the weather conditions in past years. The results will help you decide how hot, cold, wet, or windy it might be!

Date:

Astronomy

Jul. 24, 2013 Rise Set
Actual Time 6:40 AM EDT 8:17 PM EDT
Civil Twilight 6:14 AM EDT 8:42 PM EDT
Nautical Twilight 5:44 AM EDT 9:13 PM EDT
Astronomical Twilight 5:11 AM EDT 9:46 PM EDT
Moon 9:41 PM EDT (7/24) 8:42 AM EDT (7/24)
Length of Visible Light 14h 27m
Length of Day
13h 36m
Waning Gibbous, 95% of the Moon is Illuminated
Jul 24
Waning Gibbous
Jul 29
Last Quarter
Aug 6
New
Aug 14
First Quarter
Aug 20
Full

Hourly Weather History & Observations

Time (EDT) Temp. Heat Index Dew Point Humidity Pressure Visibility Wind Dir Wind Speed Gust Speed Precip Events Conditions
12:53 AM 77.0 °F - 73.0 °F 88% 30.00 in 10.0 mi SW 4.6 mph - N/A   Clear
1:53 AM 75.9 °F - 72.0 °F 87% 29.98 in 10.0 mi SW 4.6 mph - N/A   Clear
2:53 AM 75.9 °F - 73.0 °F 91% 29.95 in 10.0 mi SSW 5.8 mph - N/A   Clear
3:53 AM 75.9 °F - 73.0 °F 91% 29.94 in 10.0 mi SSW 3.5 mph - N/A   Clear
4:53 AM 75.9 °F - 73.0 °F 91% 29.94 in 10.0 mi SW 5.8 mph - N/A   Clear
5:53 AM 75.9 °F - 73.0 °F 91% 29.94 in 10.0 mi SSW 8.1 mph - N/A   Clear
6:53 AM 75.9 °F - 73.0 °F 91% 29.94 in 10.0 mi SW 9.2 mph - N/A   Clear
7:53 AM 78.1 °F - 73.9 °F 87% 29.95 in 10.0 mi WSW 8.1 mph - N/A   Clear
8:53 AM 81.0 °F 86.2 °F 73.9 °F 79% 29.97 in 10.0 mi WSW 12.7 mph - N/A   Clear
9:53 AM 84.0 °F 91.9 °F 75.0 °F 74% 29.97 in 10.0 mi WSW 16.1 mph 21.9 mph N/A   Scattered Clouds
10:43 AM 86.0 °F 95.1 °F 75.2 °F 70% 29.96 in 10.0 mi WSW 9.2 mph 19.6 mph N/A   Mostly Cloudy
10:53 AM 86.0 °F 95.1 °F 75.0 °F 70% 29.96 in 10.0 mi WSW 12.7 mph - N/A   Mostly Cloudy
11:53 AM 88.0 °F 97.5 °F 75.0 °F 65% 29.96 in 10.0 mi WSW 10.4 mph 18.4 mph N/A   Mostly Cloudy
12:53 PM 89.1 °F 97.0 °F 73.0 °F 59% 29.94 in 10.0 mi West 11.5 mph - N/A   Mostly Cloudy
1:37 PM 80.6 °F 85.4 °F 73.4 °F 79% 29.96 in 0.5 mi WNW 23.0 mph 35.7 mph N/A Rain , Thunderstorm Heavy Thunderstorms and Rain
1:45 PM 75.2 °F - 73.4 °F 94% 29.98 in 0.5 mi WNW 20.7 mph 38.0 mph N/A Rain , Thunderstorm Heavy Thunderstorms and Rain
1:53 PM 75.9 °F - 73.0 °F 91% 29.99 in 0.5 mi West 15.0 mph 21.9 mph N/A Rain , Thunderstorm Heavy Thunderstorms and Rain
1:55 PM 75.2 °F - 73.4 °F 94% 29.98 in 1.0 mi West 12.7 mph 21.9 mph 0.02 in Rain , Thunderstorm Heavy Thunderstorms and Rain
2:05 PM 75.2 °F - 71.6 °F 89% 29.97 in 2.0 mi WNW 9.2 mph - 0.06 in Rain , Thunderstorm Heavy Rain
2:16 PM 75.2 °F - 73.4 °F 94% 29.96 in 4.0 mi NNW 4.6 mph - 0.08 in Thunderstorm Overcast
2:50 PM 78.8 °F - 73.4 °F 83% 29.95 in 10.0 mi West 4.6 mph - 0.08 in Thunderstorm Partly Cloudy
2:53 PM 80.1 °F 85.1 °F 75.0 °F 85% 29.96 in 10.0 mi West 6.9 mph - 0.08 in Thunderstorm Partly Cloudy
3:08 PM 75.2 °F - 71.6 °F 89% 29.96 in 2.0 mi West 27.6 mph 38.0 mph 0.04 in Rain , Thunderstorm Light Rain
3:29 PM 73.4 °F - 71.6 °F 94% 29.94 in 2.0 mi WNW 8.1 mph - 0.27 in Rain Rain
3:37 PM 73.4 °F - 71.6 °F 94% 29.93 in 8.0 mi West 5.8 mph - 0.27 in Rain Light Rain
3:53 PM 73.9 °F - 71.1 °F 91% 29.93 in 10.0 mi WSW 6.9 mph - 0.28 in Rain Light Rain
4:53 PM 75.9 °F - 73.0 °F 91% 29.91 in 10.0 mi South 6.9 mph - 0.00 in   Partly Cloudy
5:53 PM 79.0 °F - 73.9 °F 84% 29.91 in 10.0 mi SSW 6.9 mph - N/A   Clear
6:53 PM 80.1 °F 84.5 °F 73.9 °F 81% 29.91 in 10.0 mi South 6.9 mph - N/A   Clear
7:53 PM 79.0 °F - 73.9 °F 84% 29.92 in 10.0 mi SSW 4.6 mph - N/A   Clear
8:53 PM 79.0 °F - 73.9 °F 84% 29.93 in 10.0 mi SSW 5.8 mph - N/A   Clear
9:06 PM 78.8 °F - 75.2 °F 89% 29.93 in 10.0 mi SSW 5.8 mph - N/A   Partly Cloudy
9:53 PM 78.1 °F - 75.0 °F 90% 29.93 in 10.0 mi SSW 6.9 mph - N/A   Clear
10:53 PM 79.0 °F - 75.0 °F 88% 29.93 in 10.0 mi SW 8.1 mph - N/A   Scattered Clouds
11:53 PM 79.0 °F - 75.0 °F 88% 29.93 in 10.0 mi WSW 6.9 mph - N/A   Clear